When you browse on this site, cookies collect data to enhance your experience and personalize the content and advertising you see.
Visit our Privacy Policy to learn more. By continuing to use the site, you agree to this use of cookies and data.
  • In Hungary
  • List of Countries
  • For 7 days
  • Water Temperature
  • Satellite Maps
  • Weather Map
  • News
  • Weather Widgets
  • user-avatar
    Login

    Hourly Weather Starzynka

    Today, 17 November, Saturday

    Time Temperature Precipitation Wind Pressure Humidity
    00:00 -1°C° 0 mm 3 mps 769 mmHg 78%
    01:00 -1°C° 0 mm 3 mps 769 mmHg 75%
    02:00 -2°C° 0 mm 3 mps 769 mmHg 73%
    03:00 -2°C° 0 mm 3 mps 769 mmHg 70%
    04:00 -2°C° 0 mm 2 mps 769 mmHg 68%
    05:00 -2°C° 0 mm 2 mps 769 mmHg 65%
    06:00 -2°C° 0 mm 2 mps 769 mmHg 63%
    07:00 -2°C° 0 mm 2 mps 768 mmHg 61%
    08:00 -2°C° 0 mm 2 mps 768 mmHg 60%
    09:00 -1°C° 0 mm 3 mps 768 mmHg 54%
    10:00 0°C° 0 mm 3 mps 768 mmHg 49%
    11:00 +1°C° 0 mm 3 mps 768 mmHg 44%
    12:00 +2°C° 0 mm 3 mps 768 mmHg 42%
    13:00 +2°C° 0 mm 3 mps 768 mmHg 39%
    14:00 +3°C° 0 mm 3 mps 767 mmHg 37%
    15:00 +3°C° 0 mm 2 mps 767 mmHg 41%
    16:00 +2°C° 0 mm 2 mps 767 mmHg 45%
    17:00 +1°C° 0 mm 2 mps 766 mmHg 49%
    18:00 +1°C° 0 mm 2 mps 766 mmHg 49%
    19:00 -1°C° 0 mm 2 mps 766 mmHg 49%
    20:00 -1°C° 0 mm 2 mps 766 mmHg 49%
    21:00 +1°C° 0 mm 1 mps 766 mmHg 48%
    22:00 +1°C° 0 mm 1 mps 766 mmHg 47%
    23:00 +1°C° 0 mm 1 mps 765 mmHg 47%

    Tomorrow, 18 November, Sunday

    Time Temperature Precipitation Wind Pressure Humidity
    00:00 +1°C° 0 mm 1 mps 765 mmHg 46%
    01:00 +1°C° 0 mm 1 mps 764 mmHg 45%
    02:00 +1°C° 0 mm 1 mps 764 mmHg 44%
    03:00 +1°C° 0 mm 1 mps 763 mmHg 44%
    04:00 +1°C° 0 mm 1 mps 762 mmHg 44%
    05:00 -2°C° 0 mm 2 mps 762 mmHg 44%
    06:00 -1°C° 0 mm 2 mps 761 mmHg 45%
    07:00 -1°C° 0 mm 2 mps 761 mmHg 47%
    08:00 -1°C° 0 mm 2 mps 760 mmHg 48%
    09:00 -1°C° 0 mm 2 mps 760 mmHg 52%
    10:00 0°C° 0 mm 3 mps 759 mmHg 56%
    11:00 +1°C° 0 mm 3 mps 759 mmHg 60%
    12:00 +1°C° 0.1 mm 3 mps 758 mmHg 66%
    13:00 +1°C° 0.1 mm 3 mps 758 mmHg 72%
    14:00 +1°C° 0.1 mm 3 mps 757 mmHg 79%
    15:00 +1°C° 0.1 mm 3 mps 757 mmHg 83%
    16:00 +2°C° 0.1 mm 2 mps 757 mmHg 88%
    17:00 +2°C° 0.1 mm 2 mps 756 mmHg 93%
    18:00 +2°C° 0 mm 2 mps 756 mmHg 94%
    19:00 +1°C° 0 mm 2 mps 755 mmHg 95%
    20:00 +1°C° 0 mm 2 mps 755 mmHg 96%
    21:00 +1°C° 0 mm 2 mps 755 mmHg 96%
    22:00 +1°C° 0 mm 2 mps 755 mmHg 96%
    23:00 +1°C° 0 mm 2 mps 755 mmHg 97%

    Day after tomorrow, 19 November, Monday

    Time Temperature Precipitation Wind Pressure Humidity
    00:00 +1°C° 0.1 mm 2 mps 755 mmHg 97%
    01:00 +2°C° 0.1 mm 1 mps 755 mmHg 97%
    02:00 +3°C° 0.1 mm 1 mps 755 mmHg 97%
    03:00 +1°C° 0.2 mm 2 mps 754 mmHg 97%
    04:00 +1°C° 0.2 mm 2 mps 754 mmHg 96%
    05:00 +1°C° 0.2 mm 2 mps 754 mmHg 96%
    06:00 +1°C° 0.1 mm 2 mps 754 mmHg 96%
    07:00 +1°C° 0.1 mm 2 mps 754 mmHg 95%
    08:00 +1°C° 0.1 mm 2 mps 754 mmHg 95%
    09:00 +1°C° 0.1 mm 3 mps 754 mmHg 93%
    10:00 +1°C° 0.1 mm 3 mps 754 mmHg 91%
    11:00 +1°C° 0.1 mm 3 mps 755 mmHg 89%
    12:00 +1°C° 0 mm 4 mps 755 mmHg 88%
    13:00 +1°C° 0 mm 4 mps 755 mmHg 87%
    14:00 +1°C° 0 mm 4 mps 755 mmHg 86%
    15:00 +1°C° 0 mm 4 mps 755 mmHg 87%
    16:00 0°C° 0 mm 4 mps 755 mmHg 88%
    17:00 0°C° 0 mm 4 mps 755 mmHg 88%
    18:00 0°C° 0 mm 4 mps 755 mmHg 88%
    19:00 0°C° 0 mm 4 mps 755 mmHg 87%
    20:00 0°C° 0 mm 5 mps 755 mmHg 86%
    21:00 -1°C° 0 mm 5 mps 756 mmHg 86%
    22:00 -1°C° 0 mm 5 mps 756 mmHg 86%
    23:00 -1°C° 0 mm 4 mps 756 mmHg 86%

    20 November, Tuesday

    Time Temperature Precipitation Wind Pressure Humidity
    00:00 -1°C° 0 mm 4 mps 756 mmHg 87%
    01:00 -2°C° 0 mm 4 mps 756 mmHg 87%
    02:00 -2°C° 0 mm 4 mps 756 mmHg 88%
    03:00 -2°C° 0 mm 4 mps 756 mmHg 88%
    04:00 -3°C° 0 mm 4 mps 756 mmHg 88%
    05:00 -3°C° 0 mm 4 mps 756 mmHg 87%
    06:00 -3°C° 0 mm 4 mps 756 mmHg 87%
    07:00 -3°C° 0 mm 4 mps 756 mmHg 86%
    08:00 -4°C° 0 mm 4 mps 756 mmHg 85%
    09:00 -3°C° 0 mm 4 mps 756 mmHg 81%
    10:00 -4°C° 0 mm 5 mps 756 mmHg 76%
    11:00 -2°C° 0 mm 5 mps 756 mmHg 71%
    12:00 -2°C° 0 mm 5 mps 755 mmHg 69%
    13:00 -1°C° 0 mm 5 mps 755 mmHg 67%
    14:00 -1°C° 0 mm 5 mps 754 mmHg 65%
    15:00 -1°C° 0 mm 5 mps 754 mmHg 69%
    16:00 -2°C° 0 mm 5 mps 754 mmHg 73%
    17:00 -2°C° 0 mm 5 mps 753 mmHg 77%
    18:00 -2°C° 0 mm 5 mps 753 mmHg 78%
    19:00 -4°C° 0 mm 5 mps 753 mmHg 80%
    20:00 -4°C° 0 mm 6 mps 752 mmHg 81%
    21:00 -4°C° 0 mm 6 mps 752 mmHg 82%
    22:00 -3°C° 0 mm 6 mps 751 mmHg 82%
    23:00 -3°C° 0 mm 6 mps 751 mmHg 83%

    21 November, Wednesday

    Time Temperature Precipitation Wind Pressure Humidity
    00:00 -3°C° 0.4 mm 7 mps 750 mmHg 85%
    01:00 -3°C° 0.4 mm 7 mps 749 mmHg 87%
    02:00 -3°C° 0.4 mm 7 mps 749 mmHg 89%
    03:00 -3°C° 0.7 mm 7 mps 749 mmHg 89%
    04:00 -3°C° 0.7 mm 7 mps 748 mmHg 90%
    05:00 -3°C° 0.7 mm 7 mps 748 mmHg 91%
    06:00 -3°C° 0.7 mm 7 mps 748 mmHg 91%
    07:00 -3°C° 0.7 mm 7 mps 747 mmHg 90%
    08:00 -2°C° 0.7 mm 8 mps 747 mmHg 90%
    09:00 -2°C° 0.4 mm 7 mps 748 mmHg 90%
    10:00 -2°C° 0.4 mm 7 mps 748 mmHg 90%
    11:00 -2°C° 0.4 mm 7 mps 748 mmHg 90%
    12:00 -2°C° 0.3 mm 7 mps 748 mmHg 90%
    13:00 -2°C° 0.3 mm 7 mps 748 mmHg 90%
    14:00 -2°C° 0.3 mm 6 mps 749 mmHg 91%
    15:00 -2°C° 0.2 mm 6 mps 749 mmHg 91%
    16:00 -2°C° 0.2 mm 6 mps 749 mmHg 91%
    17:00 -2°C° 0.2 mm 6 mps 750 mmHg 91%
    18:00 -2°C° 0.2 mm 6 mps 750 mmHg 91%
    19:00 -2°C° 0.2 mm 6 mps 751 mmHg 92%
    20:00 -1°C° 0.2 mm 5 mps 751 mmHg 92%
    21:00 -1°C° 0.1 mm 5 mps 752 mmHg 92%
    22:00 -1°C° 0.1 mm 5 mps 752 mmHg 93%
    23:00 -1°C° 0.1 mm 5 mps 753 mmHg 93%

    22 November, Thursday

    Time Temperature Precipitation Wind Pressure Humidity
    00:00 -1°C° 0.1 mm 5 mps 753 mmHg 93%
    01:00 -1°C° 0.1 mm 5 mps 753 mmHg 93%
    02:00 -1°C° 0.1 mm 4 mps 754 mmHg 93%
    03:00 -1°C° 0 mm 4 mps 754 mmHg 93%
    04:00 -1°C° 0 mm 4 mps 754 mmHg 93%
    05:00 -1°C° 0 mm 4 mps 754 mmHg 94%
    06:00 -1°C° 0 mm 4 mps 755 mmHg 93%
    07:00 -1°C° 0 mm 4 mps 755 mmHg 93%
    08:00 -1°C° 0 mm 4 mps 755 mmHg 93%
    09:00 -1°C° 0 mm 4 mps 756 mmHg 94%
    10:00 -1°C° 0 mm 4 mps 756 mmHg 94%
    11:00 -1°C° 0 mm 4 mps 757 mmHg 95%
    12:00 -1°C° 0 mm 4 mps 757 mmHg 95%
    13:00 -1°C° 0 mm 4 mps 757 mmHg 95%
    14:00 -1°C° 0 mm 4 mps 757 mmHg 95%
    15:00 -1°C° 0 mm 4 mps 757 mmHg 94%
    16:00 -1°C° 0 mm 4 mps 757 mmHg 94%
    17:00 -1°C° 0 mm 4 mps 757 mmHg 94%
    18:00 -1°C° 0 mm 4 mps 758 mmHg 93%
    19:00 -1°C° 0 mm 4 mps 758 mmHg 93%
    20:00 -1°C° 0 mm 4 mps 758 mmHg 93%
    21:00 -1°C° 0 mm 4 mps 758 mmHg 93%
    22:00 -1°C° 0 mm 4 mps 759 mmHg 93%
    23:00 -1°C° 0 mm 4 mps 759 mmHg 93%
    Show more